Wind_Speed
130 135 136 136 133 132 133 134 135 133 132 132 132 132 131 129 126 124 123 122 122 124 124 120 115 114 111 109 107 104 102 99 99 94 92 88 83 80
133 132 135 139 141 142 140 138 138 140 139 138 137 137 138 137 135 134 131 128 127 126 125 126 125 123 118 114 113 112 109 107 103 98 99 93 90 86
138 138 137 138 141 142 146 148 147 145 142 142 144 144 143 142 143 142 141 138 134 132 131 129 129 129 127 123 117 115 116 113 112 113 110 107 101 97
140 141 141 139 139 141 144 147 150 155 153 147 146 147 148 148 146 147 147 146 144 141 138 136 134 132 130 130 129 124 118 117 116 116 114 111 107 105
128 131 135 138 139 139 137 139 144 148 152 156 154 154 151 151 151 151 151 150 149 148 146 144 141 139 136 133 131 130 129 123 118 118 120 114 108 111
117 118 121 126 129 132 132 132 132 133 139 146 149 156 161 161 159 158 157 155 153 152 151 150 149 147 144 141 138 134 132 131 129 123 118 119 120 119
118 120 122 125 127 128 129 129 129 130 131 132 135 141 147 157 164 168 166 163 161 159 157 156 156 152 150 148 145 142 140 136 133 130 127 121 117 121
124 126 129 131 132 132 133 131 131 131 132 133 133 135 135 143 153 161 164 170 172 170 169 163 164 160 157 154 151 148 145 142 139 135 133 129 123 119
116 118 121 123 127 130 132 133 134 135 134 134 132 133 136 139 144 148 155 162 164 170 181 174 172 167 165 160 158 156 152 148 144 140 138 136 131 126
106 107 109 112 115 117 119 121 123 124 127 127 128 131 135 136 141 144 148 152 154 158 171 172 177 177 177 174 168 163 161 154 150 148 144 140 137 132
96 96 97 99 103 106 106 107 108 110 117 116 114 113 120 127 133 141 142 144 145 150 160 167 169 175 181 180 179 175 169 162 160 153 149 146 141 138
89 88 90 91 93 95 97 96 94 100 104 104 104 104 107 111 118 124 126 132 137 139 150 156 162 171 174 175 178 179 179 175 166 162 156 154 147 142
83 84 85 87 86 86 88 87 87 90 95 95 96 97 99 101 105 108 109 112 117 122 142 147 149 156 159 165 172 174 177 179 178 170 164 161 152 149
77 77 79 80 80 79 79 80 80 81 82 85 87 90 92 94 96 98 100 103 104 107 123 129 133 145 152 153 158 166 170 172 176 177 173 166 164 156
69 70 73 74 75 73 73 72 71 71 73 77 80 82 83 85 86 89 91 94 96 102 112 115 114 127 134 140 150 156 158 162 168 170 172 172 168 164
63 63 68 70 68 66 64 63 64 66 67 70 73 75 76 77 78 79 81 85 88 94 100 104 107 114 117 119 131 144 154 155 156 158 161 166 167 167
59 62 62 60 60 58 57 57 58 60 61 62 66 68 69 70 72 72 73 76 79 87 93 95 98 102 104 108 111 121 136 149 155 155 155 158 162 165
58 57 54 53 52 51 50 51 53 53 54 57 60 62 63 64 67 68 69 71 74 79 84 88 87 90 93 94 101 109 117 127 139 149 151 150 151 150
52 50 49 47 46 46 47 48 49 49 50 53 55 57 58 59 61 62 64 66 70 75 78 81 81 82 87 88 98 100 105 112 118 124 142 144 148 147
46 44 43 42 42 42 43 43 43 43 45 46 49 51 53 54 55 57 59 60 63 69 72 75 76 78 77 84 90 89 91 100 107 111 119 134 142 146
42 37 38 37 37 37 37 38 38 39 40 42 43 45 47 48 52 53 54 56 59 64 67 70 72 71 70 74 78 87 88 93 99 104 109 113 129 143
36 33 34 32 33 34 34 35 35 34 34 36 38 41 42 44 47 48 50 52 55 58 62 66 66 65 65 67 75 83 83 85 90 95 101 103 109 125
27 29 29 29 30 30 31 29 29 29 30 32 35 37 38 40 42 44 46 48 51 53 56 60 62 60 61 63 71 77 79 78 83 86 91 98 100 113
Wind_Direction
257 255 254 254 253 251 249 248 246 244 246 249 252 254 252 248 246 247 247 247 247 246 245 244 242 242 245 248 248 247 246 245 247 250 250 246 248 252
257 256 255 254 253 252 252 251 250 246 243 245 247 250 252 252 251 248 246 246 247 247 247 246 246 244 242 241 244 246 247 246 244 245 249 248 249 251
260 259 257 254 253 253 252 251 251 250 248 246 245 246 248 250 251 250 249 246 245 245 246 247 247 246 246 245 242 242 244 245 247 246 248 250 250 250
262 262 260 259 257 254 253 252 251 250 249 247 247 246 246 247 249 251 250 248 247 245 245 245 246 247 247 246 246 244 241 242 243 246 247 247 248 248
264 264 263 262 262 261 258 255 253 251 250 248 246 246 246 246 246 249 251 250 249 247 245 245 244 245 245 245 246 246 246 242 241 242 244 246 247 245
265 265 264 263 262 262 261 259 257 253 251 249 248 247 247 246 245 245 246 249 250 250 248 245 244 244 243 243 244 245 245 245 244 241 241 242 243 247
264 263 262 261 260 259 258 258 256 254 252 249 246 245 246 247 246 245 244 246 247 248 249 248 245 243 242 242 242 243 243 244 245 245 242 240 241 243
265 264 262 262 261 260 259 257 256 255 253 251 249 246 244 243 243 244 243 243 242 247 246 246 249 246 243 241 241 241 242 242 243 244 245 243 239 241
267 266 265 264 263 262 261 260 259 257 256 254 252 249 247 246 244 243 242 242 241 241 245 244 246 247 248 244 241 239 239 240 241 242 243 244 243 241
269 267 266 265 264 263 262 261 260 260 259 256 254 251 251 249 248 245 244 243 241 240 242 242 242 242 244 246 245 241 239 237 238 239 239 241 243 242
269 268 266 264 264 263 262 261 260 260 259 257 256 253 252 250 248 248 247 246 245 242 241 242 241 241 241 242 243 243 242 238 236 236 237 238 240 241
274 272 270 266 264 263 262 261 260 259 259 258 256 254 252 251 249 248 246 245 244 243 244 243 242 242 241 240 241 242 243 242 238 235 235 236 235 237
275 273 271 269 266 264 263 262 260 258 257 257 256 254 252 251 250 248 247 246 244 242 243 243 242 242 243 241 240 241 242 243 242 238 235 234 233 234
275 273 270 268 267 265 263 261 260 258 258 257 256 255 252 250 249 249 247 246 244 243 243 242 241 241 241 240 240 241 241 242 243 242 240 235 234 233
274 271 269 268 265 264 262 262 263 261 258 256 254 253 252 251 249 247 247 246 244 243 243 244 241 242 241 239 238 238 240 241 242 242 242 241 234 233
272 269 266 265 265 265 263 261 259 258 257 256 255 254 252 250 249 247 246 245 244 243 243 243 242 241 240 239 238 237 238 240 240 241 242 241 239 233
271 266 265 267 266 262 260 259 258 257 256 255 254 253 252 251 249 248 246 244 242 243 244 242 241 242 241 239 238 236 236 237 239 239 240 239 239 239
268 269 269 267 264 262 260 259 257 255 253 252 252 251 250 249 248 247 245 243 242 242 243 244 241 241 241 239 238 236 235 235 236 238 239 238 239 239
270 268 268 266 262 260 259 256 254 253 251 251 251 250 249 247 246 245 242 241 240 241 242 243 242 238 238 236 237 235 234 235 236 235 237 239 238 239
269 269 268 265 263 259 257 256 254 253 253 251 251 251 250 249 248 245 244 242 241 242 241 241 240 238 235 235 238 235 234 233 234 233 233 234 234 235
269 268 266 264 260 259 257 255 255 253 252 252 252 251 250 248 248 245 244 241 240 241 241 241 240 238 235 234 235 237 232 231 230 230 230 231 231 232
269 266 263 260 258 258 257 256 255 254 253 251 249 250 249 248 248 247 246 244 241 242 242 243 242 238 234 233 234 235 234 230 231 228 229 228 229 230
267 262 260 260 259 259 257 258 256 253 251 248 248 247 248 248 247 247 247 245 245 241 241 242 241 239 236 233 234 235 236 230 228 229 227 227 225 226
Height
10389 10392 10396 10400 10405 10410 10417 10425 10437 10448 10454 10456 10451 10450 10463 10478 10489 10495 10503 10511 10519 10527 10536 10547 10557 10568 10577 10586 10596 10604 10613 10623 10627 10634 10640 10653 10660 10667
10344 10350 10354 10357 10362 10367 10374 10380 10388 10400 10417 10417 10421 10422 10421 10431 10444 10457 10470 10477 10486 10494 10503 10512 10522 10533 10545 10556 10564 10575 10584 10592 10604 10608 10615 10628 10640 10646
10293 10300 10306 10311 10316 10320 10327 10334 10342 10350 10368 10383 10385 10388 10390 10391 10397 10409 10424 10440 10452 10460 10468 10479 10489 10499 10510 10522 10534 10543 10552 10565 10572 10582 10592 10603 10615 10624
10246 10253 10256 10257 10267 10272 10278 10286 10293 10300 10315 10334 10340 10347 10355 10358 10360 10363 10374 10389 10408 10422 10432 10443 10454 10464 10476 10487 10498 10511 10521 10532 10544 10550 10558 10575 10586 10597
10200 10203 10206 10207 10214 10218 10224 10233 10240 10251 10259 10278 10297 10297 10307 10316 10325 10329 10330 10342 10355 10373 10390 10403 10414 10427 10438 10451 10462 10474 10488 10503 10513 10520 10531 10545 10549 10568
10158 10159 10161 10162 10166 10166 10172 10179 10186 10197 10209 10223 10242 10252 10257 10267 10277 10286 10293 10296 10308 10322 10338 10356 10371 10383 10396 10412 10429 10441 10452 10464 10478 10492 10502 10514 10523 10532
10116 10117 10117 10116 10117 10120 10125 10130 10136 10145 10155 10166 10184 10196 10211 10216 10223 10233 10250 10256 10268 10276 10284 10295 10319 10342 10357 10371 10387 10400 10414 10428 10441 10457 10471 10483 10495 10504
10070 10069 10070 10070 10072 10075 10077 10084 10091 10097 10106 10114 10127 10143 10159 10158 10163 10174 10193 10202 10229 10229 10230 10254 10257 10285 10309 10327 10344 10361 10374 10392 10404 10419 10433 10449 10464 10475
10026 10025 10024 10023 10023 10026 10031 10036 10043 10048 10057 10067 10079 10093 10101 10109 10119 10133 10136 10148 10172 10190 10166 10209 10221 10239 10249 10272 10293 10314 10334 10350 10367 10381 10394 10410 10429 10444
9986 9983 9982 9979 9978 9981 9986 9989 9994 10002 10007 10014 10031 10046 10052 10064 10063 10075 10087 10100 10123 10142 10117 10153 10169 10187 10193 10209 10232 10257 10283 10307 10326 10342 10358 10372 10392 10410
9946 9944 9944 9944 9940 9937 9945 9950 9957 9962 9956 9967 9980 9996 10003 10011 10018 10024 10041 10053 10073 10091 10086 10098 10122 10128 10138 10161 10180 10198 10223 10256 10281 10299 10318 10339 10353 10371
9911 9910 9907 9909 9905 9904 9907 9915 9926 9921 9922 9929 9940 9950 9957 9965 9968 9974 9993 10009 10027 10052 10041 10044 10067 10068 10093 10123 10137 10152 10169 10194 10228 10255 10276 10295 10313 10328
9882 9877 9873 9870 9874 9875 9874 9882 9888 9887 9889 9898 9902 9909 9917 9925 9931 9940 9954 9969 9983 10002 9979 9996 10023 10033 10052 10078 10091 10107 10122 10143 10165 10201 10230 10253 10271 10289
9851 9846 9842 9839 9842 9846 9847 9848 9852 9857 9864 9867 9872 9875 9881 9890 9897 9906 9917 9927 9942 9956 9937 9954 9983 9985 10001 10030 10051 10061 10080 10099 10115 10145 10178 10206 10226 10253
9824 9819 9815 9813 9812 9818 9820 9823 9827 9832 9835 9836 9838 9843 9851 9857 9866 9873 9883 9892 9906 9911 9903 9918 9943 9940 9960 9990 10010 10021 10034 10062 10076 10101 10127 10156 10186 10211
9798 9796 9790 9788 9792 9796 9800 9801 9802 9804 9808 9809 9811 9816 9823 9830 9836 9844 9856 9862 9871 9872 9876 9887 9904 9906 9926 9951 9963 9987 10001 10021 10039 10061 10084 10108 10134 10168
9773 9767 9767 9771 9774 9776 9777 9778 9781 9783 9786 9788 9788 9792 9798 9805 9810 9820 9828 9834 9843 9843 9846 9857 9870 9878 9899 9916 9939 9951 9958 9979 9996 10017 10033 10059 10083 10111
9749 9750 9752 9753 9756 9757 9758 9759 9760 9764 9767 9767 9768 9772 9777 9782 9786 9796 9803 9811 9817 9818 9821 9828 9845 9859 9871 9889 9900 9910 9922 9939 9954 9971 9991 10020 10046 10076
9733 9734 9735 9737 9737 9739 9740 9740 9742 9745 9747 9748 9749 9752 9757 9761 9766 9772 9779 9786 9791 9794 9799 9807 9819 9832 9843 9859 9853 9874 9892 9908 9922 9944 9966 9989 10022 10044
9717 9718 9719 9720 9721 9722 9723 9724 9726 9729 9731 9733 9734 9737 9740 9743 9748 9754 9760 9767 9772 9774 9778 9785 9794 9803 9821 9829 9836 9855 9871 9880 9894 9913 9932 9955 9986 10005
9702 9705 9704 9706 9706 9707 9709 9710 9712 9715 9717 9718 9721 9723 9726 9729 9730 9736 9742 9748 9752 9754 9758 9764 9771 9786 9801 9810 9822 9822 9837 9848 9861 9882 9899 9921 9947 9967
9690 9691 9691 9692 9693 9694 9695 9697 9699 9703 9706 9707 9708 9709 9711 9713 9716 9721 9726 9730 9734 9738 9743 9747 9755 9767 9781 9792 9794 9796 9810 9827 9839 9857 9874 9898 9916 9949
9678 9678 9679 9681 9682 9683 9685 9687 9690 9691 9693 9695 9695 9697 9700 9702 9705 9707 9710 9714 9717 9722 9727 9731 9738 9751 9762 9773 9773 9778 9786 9806 9821 9836 9857 9871 9893 9922